Weather History for Rochester, NH

Change the Weather History Date:

Friday, March 14, 2014

  Actual Average (KSFM) Record (KSFM)
Temperature  
Mean Temperature 22 °F -  
Max Temperature 34 °F 36 °F 69 °F (2007)
Min Temperature 10 °F 20 °F 3 °F (2014)
Degree Days  
Heating Degree Days 43    
Moisture  
Dew Point 3 °F    
Average Humidity 42    
Maximum Humidity 54    
Minimum Humidity 31    
Precipitation  
Precipitation 0.00 in - - ()
Sea Level Pressure  
Sea Level Pressure 29.98 in    
Wind  
Wind Speed 5 mph (SSW)    
Max Wind Speed 8 mph    
Max Gust Speed 17 mph    
Visibility 10 miles    
Events      
Averages and records for this station are not official NWS values.
T = Trace of Precipitation, MM = Missing Value Source: NWS Daily Summary

Daily Weather History Graph

Daily Weather History Graph

Search for Another Location

Airport:

Trip Planner

Search our weather history database for the weather conditions in past years. The results will help you decide how hot, cold, wet, or windy it might be!

Date:

Astronomy

Mar. 14, 2014 Rise Set
Actual Time 6:57 AM EDT 6:48 PM EDT
Civil Twilight 6:29 AM EDT 7:17 PM EDT
Nautical Twilight 5:56 AM EDT 7:50 PM EDT
Astronomical Twilight 5:22 AM EDT 8:24 PM EDT
Moon 5:06 PM EDT (3/14) 5:38 AM EDT (3/14)
Length of Visible Light 12h 47m
Length of Day
11h 51m
Waxing Gibbous, 96% of the Moon is Illuminated
Mar 14
Waxing Gibbous
Mar 16
Full
Mar 23
Last Quarter
Mar 30
New
Apr 7
First Quarter

Hourly Weather History & Observations

Time (EDT) Temp. Windchill Dew Point Humidity Pressure Visibility Wind Dir Wind Speed Gust Speed Precip Events Conditions
12:51 AM 12.9 °F 1.6 °F -5.1 °F 45% 29.86 in 10.0 mi WNW 8.1 mph 17.3 mph N/A   Clear
1:51 AM 12.0 °F 0.5 °F -5.1 °F 46% 29.90 in 10.0 mi West 8.1 mph - N/A   Clear
2:51 AM 10.0 °F - -4.0 °F 53% 29.92 in 10.0 mi Calm Calm - N/A   Clear
3:51 AM 12.0 °F 5.9 °F -6.0 °F 44% 29.94 in 10.0 mi Variable 3.5 mph - N/A   Clear
4:51 AM 12.9 °F 5.2 °F -6.0 °F 43% 29.97 in 10.0 mi Variable 4.6 mph - N/A   Clear
5:51 AM 12.0 °F 2.7 °F -5.1 °F 46% 30.00 in 10.0 mi West 5.8 mph - N/A   Clear
6:51 AM 12.0 °F 1.5 °F -5.1 °F 46% 30.03 in 10.0 mi Variable 6.9 mph - N/A   Clear
7:51 AM 12.0 °F - -2.9 °F 51% 30.06 in 10.0 mi Calm Calm - N/A   Clear
8:51 AM 17.1 °F 11.7 °F -4.0 °F 39% 30.09 in 10.0 mi West 3.5 mph - N/A   Clear
9:51 AM 21.0 °F 14.6 °F -4.0 °F 33% 30.10 in 10.0 mi Variable 4.6 mph - N/A   Clear
10:51 AM 24.1 °F 18.2 °F -0.9 °F 34% 30.10 in 10.0 mi Variable 4.6 mph - N/A   Scattered Clouds
11:51 AM 27.0 °F 23.0 °F -0.0 °F 31% 30.09 in 10.0 mi Variable 3.5 mph - N/A   Mostly Cloudy
12:51 PM 30.0 °F 25.2 °F 3.0 °F 32% 30.06 in 10.0 mi Variable 4.6 mph - N/A   Mostly Cloudy
1:51 PM 30.9 °F 26.2 °F 3.0 °F 31% 30.04 in 10.0 mi Variable 4.6 mph - N/A   Overcast
2:51 PM 32.0 °F 27.5 °F 3.9 °F 31% 30.01 in 10.0 mi Variable 4.6 mph - N/A   Overcast
3:51 PM 34.0 °F 29.8 °F 9.0 °F 35% 29.99 in 10.0 mi South 4.6 mph - N/A   Mostly Cloudy
4:51 PM 33.1 °F 28.7 °F 10.0 °F 38% 29.97 in 10.0 mi Variable 4.6 mph - N/A   Overcast
5:51 PM 33.1 °F 26.9 °F 10.0 °F 38% 29.94 in 10.0 mi South 6.9 mph - N/A   Partly Cloudy
6:51 PM 33.1 °F 30.0 °F 10.9 °F 40% 29.93 in 10.0 mi South 3.5 mph - N/A   Clear
7:51 PM 32.0 °F 28.7 °F 10.9 °F 42% 29.91 in 10.0 mi South 3.5 mph - N/A   Clear
8:51 PM 32.0 °F 27.5 °F 12.9 °F 45% 29.90 in 10.0 mi South 4.6 mph - N/A   Scattered Clouds
9:51 PM 32.0 °F 28.7 °F 15.1 °F 50% 29.90 in 10.0 mi Variable 3.5 mph - N/A   Partly Cloudy
10:51 PM 32.0 °F 27.5 °F 16.0 °F 52% 29.88 in 10.0 mi South 4.6 mph - N/A   Clear
11:51 PM 32.0 °F 27.5 °F 17.1 °F 54% 29.86 in 10.0 mi South 4.6 mph - N/A   Scattered Clouds